| time (UTC) | temp F | wind direction | speed MPH | gust MPH | rain 1hr in | rain 24hr in | rain mn in | humidity % | barometer mb |
| 20260906105307 | 75 | 145 | 2.0 | 6.0 | 0.00 | 0.00 | 0.00 | 61 | 1016.9 |
| 20260906104808 | 75 | 173 | 2.0 | 6.0 | 0.00 | 0.00 | 0.00 | 61 | 1016.7 |
| 20260906104308 | 75 | 121 | 3.0 | 7.0 | 0.00 | 0.00 | 0.00 | 61 | 1016.7 |
| 20260906103811 | 76 | 173 | 4.0 | 7.0 | 0.00 | 0.00 | 0.00 | 61 | 1016.8 |
| 20260906103634 | 76 | 128 | 4.0 | 7.0 | 0.00 | 0.00 | 0.00 | 60 | 1016.8 |
| 20260906102807 | 76 | 103 | 3.0 | 6.0 | 0.00 | 0.00 | 0.00 | 60 | 1016.7 |
| 20260906102350 | 76 | 93 | 2.0 | 5.0 | 0.00 | 0.00 | 0.00 | 59 | 1016.6 |
| 20260906102343 | 76 | 175 | 2.0 | 5.0 | 0.00 | 0.00 | 0.00 | 60 | 1016.6 |
| 20260906102329 | 76 | 140 | 3.0 | 4.0 | 0.00 | 0.00 | 0.00 | 60 | 1016.7 |
| 20260906100808 | 76 | 142 | 2.0 | 6.0 | 0.00 | 0.00 | 0.00 | 59 | 1016.5 |
| 20260906100308 | 76 | 142 | 3.0 | 6.0 | 0.00 | 0.00 | 0.00 | 59 | 1016.5 |
| 20260906095809 | 76 | 141 | 3.0 | 9.0 | 0.00 | 0.00 | 0.00 | 59 | 1016.5 |
| 20260906095308 | 77 | 164 | 2.0 | 9.0 | 0.00 | 0.00 | 0.00 | 58 | 1016.5 |
| 20260906094808 | 77 | 175 | 3.0 | 7.0 | 0.00 | 0.00 | 0.00 | 58 | 1016.5 |
| 20260906094540 | 77 | 138 | 4.0 | 7.0 | 0.00 | 0.00 | 0.00 | 58 | 1016.5 |
| 20260906093810 | 77 | 121 | 2.0 | 7.0 | 0.00 | 0.00 | 0.00 | 58 | 1016.6 |
| 20260906093638 | 77 | 169 | 4.0 | 7.0 | 0.00 | 0.00 | 0.00 | 58 | 1016.6 |
| 20260906092808 | 77 | 180 | 3.0 | 7.0 | 0.00 | 0.00 | 0.00 | 57 | 1016.6 |
| 20260906092311 | 77 | 148 | 2.0 | 6.0 | 0.00 | 0.00 | 0.00 | 57 | 1016.6 |
| 20260906092012 | 77 | 149 | 2.0 | 6.0 | 0.00 | 0.00 | 0.00 | 57 | 1016.6 |
| 20260906091920 | 77 | 203 | 3.0 | 6.0 | 0.00 | 0.00 | 0.00 | 57 | 1016.6 |
| 20260906090807 | 77 | 180 | 1.0 | 6.0 | 0.00 | 0.00 | 0.00 | 57 | 1016.5 |
| 20260906090309 | 77 | 159 | 2.0 | 6.0 | 0.00 | 0.00 | 0.00 | 57 | 1016.6 |
| 20260906085808 | 78 | 159 | 4.0 | 11.0 | 0.00 | 0.00 | 0.00 | 57 | 1016.5 |
| 20260906085533 | 78 | 173 | 3.0 | 11.0 | 0.00 | 0.00 | 0.00 | 57 | 1016.6 |
| 20260906085316 | 78 | 173 | 3.0 | 11.0 | 0.00 | 0.00 | 0.00 | 57 | 1016.6 |
| 20260906084808 | 78 | 159 | 3.0 | 7.0 | 0.00 | 0.00 | 0.00 | 57 | 1016.6 |
| 20260906084309 | 78 | 161 | 3.0 | 7.0 | 0.00 | 0.00 | 0.00 | 56 | 1016.6 |
| 20260906084010 | 78 | 178 | 2.0 | 6.0 | 0.00 | 0.00 | 0.00 | 56 | 1016.5 |
| 20260906083925 | 78 | 155 | 4.0 | 7.0 | 0.00 | 0.00 | 0.00 | 57 | 1016.6 |
| 20260906082809 | 78 | 219 | 2.0 | 7.0 | 0.00 | 0.00 | 0.00 | 55 | 1016.5 |
| 20260906082310 | 79 | 145 | 3.0 | 7.0 | 0.00 | 0.00 | 0.00 | 55 | 1016.5 |
| 20260906081807 | 79 | 171 | 4.0 | 6.0 | 0.00 | 0.00 | 0.00 | 55 | 1016.5 |
| 20260906081639 | 79 | 183 | 3.0 | 9.0 | 0.00 | 0.00 | 0.00 | 54 | 1016.6 |
| 20260906080809 | 80 | 173 | 4.0 | 9.0 | 0.00 | 0.00 | 0.00 | 54 | 1016.6 |
| 20260906080308 | 80 | 169 | 2.0 | 10.0 | 0.00 | 0.00 | 0.00 | 54 | 1016.6 |
| 20260906075812 | 80 | 192 | 5.0 | 10.0 | 0.00 | 0.00 | 0.00 | 53 | 1016.6 |
| 20260906075632 | 80 | 154 | 2.0 | 9.0 | 0.00 | 0.00 | 0.00 | 53 | 1016.6 |
| 20260906074808 | 80 | 116 | 4.0 | 11.0 | 0.00 | 0.00 | 0.00 | 53 | 1016.5 |
| 20260906074308 | 80 | 137 | 4.0 | 11.0 | 0.00 | 0.00 | 0.00 | 53 | 1016.5 |
| 20260906073809 | 81 | 124 | 3.0 | 11.0 | 0.00 | 0.00 | 0.00 | 53 | 1016.5 |
| 20260906073308 | 81 | 159 | 3.0 | 11.0 | 0.00 | 0.00 | 0.00 | 52 | 1016.5 |
| 20260906072809 | 81 | 127 | 4.0 | 11.0 | 0.00 | 0.00 | 0.00 | 52 | 1016.5 |
| 20260906072307 | 81 | 147 | 5.0 | 10.0 | 0.00 | 0.00 | 0.00 | 52 | 1016.6 |
| 20260906072138 | 81 | 152 | 4.0 | 12.0 | 0.00 | 0.00 | 0.00 | 52 | 1016.6 |
| 20260906071309 | 81 | 102 | 5.0 | 12.0 | 0.00 | 0.00 | 0.00 | 52 | 1016.6 |
| 20260906070809 | 81 | 155 | 5.0 | 11.0 | 0.00 | 0.00 | 0.00 | 52 | 1016.7 |
| 20260906070309 | 81 | 151 | 3.0 | 11.0 | 0.00 | 0.00 | 0.00 | 52 | 1016.8 |
| 20260906065808 | 81 | 148 | 4.0 | 7.0 | 0.00 | 0.00 | 0.00 | 52 | 1016.7 |
| 20260906065647 | 81 | 144 | 4.0 | 10.0 | 0.00 | 0.00 | 0.00 | 52 | 1016.7 |
| 20260906065140 | 81 | 186 | 5.0 | 10.0 | 0.00 | 0.00 | 0.00 | 52 | 1016.6 |
| 20260906064634 | 81 | 123 | 3.0 | 7.0 | 0.00 | 0.00 | 0.00 | 52 | 1016.6 |
| 20260906063808 | 81 | 99 | 3.0 | 7.0 | 0.00 | 0.00 | 0.00 | 52 | 1016.6 |
| 20260906063308 | 81 | 114 | 2.0 | 9.0 | 0.00 | 0.00 | 0.00 | 52 | 1016.6 |
| 20260906062813 | 81 | 175 | 4.0 | 9.0 | 0.00 | 0.00 | 0.00 | 52 | 1016.7 |
| 20260906062308 | 81 | 116 | 4.0 | 9.0 | 0.00 | 0.00 | 0.00 | 52 | 1016.7 |
| 20260906061809 | 81 | 135 | 4.0 | 10.0 | 0.00 | 0.00 | 0.00 | 52 | 1016.6 |
| 20260906061308 | 81 | 124 | 3.0 | 10.0 | 0.00 | 0.00 | 0.00 | 52 | 1016.7 |
| 20260906060811 | 81 | 127 | 3.0 | 9.0 | 0.00 | 0.00 | 0.00 | 51 | 1016.8 |
| 20260906060311 | 81 | 93 | 3.0 | 9.0 | 0.00 | 0.00 | 0.00 | 51 | 1016.8 |
| 20260906055808 | 82 | 102 | 4.0 | 9.0 | 0.00 | 0.00 | 0.00 | 50 | 1016.7 |
| 20260906055308 | 82 | 151 | 3.0 | 9.0 | 0.00 | 0.00 | 0.00 | 50 | 1016.7 |
| 20260906055147 | 82 | 116 | 5.0 | 9.0 | 0.00 | 0.00 | 0.00 | 50 | 1016.7 |
| 20260906054307 | 82 | 79 | 4.0 | 9.0 | 0.00 | 0.00 | 0.00 | 50 | 1016.7 |
| 20260906053808 | 82 | 144 | 4.0 | 9.0 | 0.00 | 0.00 | 0.00 | 49 | 1016.8 |
| 20260906053309 | 82 | 111 | 4.0 | 9.0 | 0.00 | 0.00 | 0.00 | 49 | 1016.6 |
| 20260906052809 | 83 | 104 | 4.0 | 9.0 | 0.00 | 0.00 | 0.00 | 49 | 1016.7 |
| 20260906052634 | 83 | 103 | 4.0 | 11.0 | 0.00 | 0.00 | 0.00 | 49 | 1016.5 |
| 20260906051808 | 83 | 111 | 5.0 | 11.0 | 0.00 | 0.00 | 0.00 | 49 | 1016.6 |
| 20260906051308 | 82 | 120 | 5.0 | 11.0 | 0.00 | 0.00 | 0.00 | 49 | 1016.6 |
| 20260906050808 | 82 | 109 | 3.0 | 6.0 | 0.00 | 0.00 | 0.00 | 50 | 1016.7 |
| 20260906050308 | 82 | 116 | 3.0 | 11.0 | 0.00 | 0.00 | 0.00 | 50 | 1016.6 |
| 20260906045831 | 82 | 144 | 3.0 | 11.0 | 0.00 | 0.00 | 0.00 | 49 | 1016.7 |
| 20260906045430 | 83 | 123 | 4.0 | 10.0 | 0.00 | 0.00 | 0.00 | 49 | 1016.6 |
| 20260906044312 | 83 | 116 | 4.0 | 9.0 | 0.00 | 0.00 | 0.00 | 49 | 1016.6 |
| 20260906043808 | 83 | 145 | 4.0 | 10.0 | 0.00 | 0.00 | 0.00 | 48 | 1016.7 |
| 20260906043307 | 83 | 151 | 6.0 | 10.0 | 0.00 | 0.00 | 0.00 | 48 | 1016.7 |
| 20260906043117 | 84 | 113 | 5.0 | 10.0 | 0.00 | 0.00 | 0.00 | 47 | 1016.7 |
| 20260906042308 | 84 | 83 | 5.0 | 12.0 | 0.00 | 0.00 | 0.00 | 47 | 1016.7 |
| 20260906041807 | 84 | 102 | 5.0 | 12.0 | 0.00 | 0.00 | 0.00 | 46 | 1016.7 |
| 20260906041635 | 84 | 110 | 4.0 | 10.0 | 0.00 | 0.00 | 0.00 | 46 | 1016.7 |
| 20260906041133 | 85 | 99 | 5.0 | 10.0 | 0.00 | 0.00 | 0.00 | 46 | 1016.6 |
| 20260906040309 | 85 | 104 | 6.0 | 14.0 | 0.00 | 0.00 | 0.00 | 46 | 1016.6 |
| 20260906040143 | 85 | 169 | 5.0 | 14.0 | 0.00 | 0.00 | 0.00 | 45 | 1016.6 |
| 20260906035317 | 85 | 111 | 6.0 | 11.0 | 0.00 | 0.00 | 0.00 | 45 | 1016.6 |
| 20260906034809 | 85 | 125 | 6.0 | 11.0 | 0.00 | 0.00 | 0.00 | 45 | 1016.6 |
| 20260906034648 | 85 | 104 | 4.0 | 10.0 | 0.00 | 0.00 | 0.00 | 44 | 1016.6 |
| 20260906033809 | 85 | 102 | 5.0 | 9.0 | 0.00 | 0.00 | 0.00 | 44 | 1016.7 |
| 20260906033307 | 85 | 111 | 4.0 | 7.0 | 0.00 | 0.00 | 0.00 | 44 | 1016.6 |
| 20260906032809 | 86 | 130 | 3.0 | 7.0 | 0.00 | 0.00 | 0.00 | 44 | 1016.6 |
| 20260906032519 | 86 | 111 | 5.0 | 11.0 | 0.00 | 0.00 | 0.00 | 43 | 1016.4 |
| 20260906032418 | 86 | 148 | 2.0 | 11.0 | 0.00 | 0.00 | 0.00 | 43 | 1016.5 |
| 20260906031308 | 86 | 121 | 4.0 | 12.0 | 0.00 | 0.00 | 0.00 | 43 | 1016.4 |
| 20260906031142 | 86 | 113 | 4.0 | 12.0 | 0.00 | 0.00 | 0.00 | 44 | 1016.3 |
| 20260906030637 | 86 | 164 | 7.0 | 12.0 | 0.00 | 0.00 | 0.00 | 44 | 1016.1 |
| 20260906025845 | 86 | 107 | 6.0 | 15.0 | 0.00 | 0.00 | 0.00 | 43 | 1015.8 |
| 20260906025438 | 86 | 125 | 6.0 | 15.0 | 0.00 | 0.00 | 0.00 | 43 | 1015.7 |
| 20260906024308 | 86 | 151 | 6.0 | 14.0 | 0.00 | 0.00 | 0.00 | 43 | 1015.6 |
| 20260906023812 | 86 | 113 | 8.0 | 13.0 | 0.00 | 0.00 | 0.00 | 43 | 1015.5 |
| 20260906023308 | 86 | 107 | 6.0 | 13.0 | 0.00 | 0.00 | 0.00 | 43 | 1015.4 |
| 20260906023137 | 86 | 87 | 6.0 | 13.0 | 0.00 | 0.00 | 0.00 | 44 | 1015.3 |
| 20260906022310 | 86 | 111 | 8.0 | 13.0 | 0.00 | 0.00 | 0.00 | 44 | 1015.3 |
| 20260906021807 | 86 | 138 | 8.0 | 12.0 | 0.00 | 0.00 | 0.00 | 44 | 1015.3 |
| 20260906021641 | 86 | 111 | 7.0 | 12.0 | 0.00 | 0.00 | 0.00 | 44 | 1015.3 |
| 20260906020807 | 87 | 158 | 6.0 | 11.0 | 0.00 | 0.00 | 0.00 | 45 | 1015.3 |
| 20260906020308 | 87 | 102 | 5.0 | 12.0 | 0.00 | 0.00 | 0.00 | 45 | 1015.3 |
| 20260906015809 | 87 | 97 | 6.0 | 12.0 | 0.00 | 0.00 | 0.00 | 45 | 1015.3 |
| 20260906015312 | 87 | 118 | 6.0 | 12.0 | 0.00 | 0.00 | 0.00 | 44 | 1015.2 |
| 20260906014810 | 88 | 102 | 4.0 | 13.0 | 0.00 | 0.00 | 0.00 | 43 | 1015.1 |
| 20260906014310 | 88 | 133 | 6.0 | 14.0 | 0.00 | 0.00 | 0.00 | 43 | 1014.7 |
| 20260906013813 | 88 | 125 | 6.0 | 14.0 | 0.00 | 0.00 | 0.00 | 43 | 1014.6 |
| 20260906013536 | 88 | 102 | 6.0 | 13.0 | 0.00 | 0.00 | 0.00 | 43 | 1014.5 |
| 20260906012808 | 89 | 100 | 6.0 | 14.0 | 0.00 | 0.00 | 0.00 | 42 | 1014.5 |
| 20260906012315 | 89 | 79 | 6.0 | 14.0 | 0.00 | 0.00 | 0.00 | 42 | 1014.5 |
| 20260906011808 | 89 | 104 | 5.0 | 12.0 | 0.00 | 0.00 | 0.00 | 42 | 1014.6 |
| 20260906011307 | 89 | 154 | 6.0 | 12.0 | 0.00 | 0.00 | 0.00 | 42 | 1014.4 |
| 20260906010807 | 89 | 125 | 4.0 | 11.0 | 0.00 | 0.00 | 0.00 | 41 | 1014.5 |
| 20260906010731 | 90 | 116 | 6.0 | 12.0 | 0.00 | 0.00 | 0.00 | 41 | 1014.5 |
| 20260906005809 | 90 | 85 | 6.0 | 12.0 | 0.00 | 0.00 | 0.00 | 40 | 1014.5 |
| 20260906005307 | 91 | 103 | 6.0 | 12.0 | 0.00 | 0.00 | 0.00 | 40 | 1014.6 |
| 20260906004810 | 91 | 96 | 6.0 | 13.0 | 0.00 | 0.00 | 0.00 | 40 | 1014.6 |
| 20260906004316 | 91 | 97 | 8.0 | 13.0 | 0.00 | 0.00 | 0.00 | 40 | 1014.4 |
| 20260906003808 | 91 | 114 | 5.0 | 10.0 | 0.00 | 0.00 | 0.00 | 39 | 1014.4 |
| 20260906003308 | 92 | 127 | 4.0 | 12.0 | 0.00 | 0.00 | 0.00 | 39 | 1014.3 |
| 20260906002807 | 92 | 138 | 7.0 | 15.0 | 0.00 | 0.00 | 0.00 | 39 | 1014.4 |
| 20260906002530 | 92 | 117 | 6.0 | 15.0 | 0.00 | 0.00 | 0.00 | 39 | 1014.4 |
| 20260906001807 | 92 | 86 | 8.0 | 14.0 | 0.00 | 0.00 | 0.00 | 38 | 1014.3 |
| 20260906001741 | 92 | 109 | 8.0 | 14.0 | 0.00 | 0.00 | 0.00 | 38 | 1014.2 |
| 20260906000809 | 92 | 134 | 6.0 | 15.0 | 0.00 | 0.00 | 0.00 | 38 | 1014.2 |
| 20260906000311 | 93 | 110 | 7.0 | 15.0 | 0.00 | 0.00 | 0.00 | 38 | 1014.0 |
| 20260905235812 | 93 | 130 | 7.0 | 14.0 | 0.00 | 0.00 | 0.00 | 38 | 1013.9 |
| 20260905235308 | 94 | 131 | 7.0 | 14.0 | 0.00 | 0.00 | 0.00 | 37 | 1013.9 |
| 20260905235036 | 95 | 104 | 7.0 | 14.0 | 0.00 | 0.00 | 0.00 | 34 | 1013.8 |
| 20260905234814 | 95 | 104 | 7.0 | 14.0 | 0.00 | 0.00 | 0.00 | 34 | 1013.8 |
| 20260905234313 | 94 | 118 | 4.0 | 10.0 | 0.00 | 0.00 | 0.00 | 34 | 1013.8 |
| 20260905234044 | 94 | 161 | 4.0 | 9.0 | 0.00 | 0.00 | 0.00 | 34 | 1013.7 |
| 20260905233812 | 94 | 161 | 4.0 | 9.0 | 0.00 | 0.00 | 0.00 | 34 | 1013.7 |
| 20260905233521 | 94 | 133 | 4.0 | 11.0 | 0.00 | 0.00 | 0.00 | 35 | 1013.4 |
| 20260905233401 | 94 | 97 | 5.0 | 9.0 | 0.00 | 0.00 | 0.00 | 34 | 1013.5 |
| 20260905232308 | 94 | 106 | 6.0 | 11.0 | 0.00 | 0.00 | 0.00 | 34 | 1013.4 |
| 20260905231814 | 94 | 133 | 5.0 | 10.0 | 0.00 | 0.00 | 0.00 | 35 | 1013.4 |
| 20260905231311 | 94 | 111 | 4.0 | 13.0 | 0.00 | 0.00 | 0.00 | 35 | 1013.4 |
| 20260905230904 | 95 | 97 | 6.0 | 12.0 | 0.00 | 0.00 | 0.00 | 34 | 1013.4 |
| 20260905230829 | 94 | 142 | 6.0 | 13.0 | 0.00 | 0.00 | 0.00 | 35 | 1013.4 |
| 20260905225810 | 95 | 113 | 5.0 | 10.0 | 0.00 | 0.00 | 0.00 | 33 | 1013.4 |
| 20260905225737 | 95 | 125 | 4.0 | 9.0 | 0.00 | 0.00 | 0.00 | 34 | 1013.4 |
| 20260905224812 | 95 | 180 | 4.0 | 10.0 | 0.00 | 0.00 | 0.00 | 33 | 1013.5 |
| 20260905224537 | 95 | 200 | 4.0 | 13.0 | 0.00 | 0.00 | 0.00 | 33 | 1013.4 |
| 20260905224311 | 95 | 200 | 4.0 | 13.0 | 0.00 | 0.00 | 0.00 | 33 | 1013.4 |
| 20260905223811 | 96 | 152 | 5.0 | 13.0 | 0.00 | 0.00 | 0.00 | 32 | 1013.5 |
| 20260905223536 | 96 | 110 | 3.0 | 12.0 | 0.00 | 0.00 | 0.00 | 32 | 1013.4 |
| 20260905223320 | 96 | 110 | 3.0 | 12.0 | 0.00 | 0.00 | 0.00 | 32 | 1013.4 |
| 20260905222818 | 98 | 121 | 6.0 | 13.0 | 0.00 | 0.00 | 0.00 | 32 | 1013.4 |
| 20260905222808 | 97 | 87 | 5.0 | 12.0 | 0.00 | 0.00 | 0.00 | 31 | 1013.4 |
| 20260905221812 | 98 | 188 | 4.0 | 16.0 | 0.00 | 0.00 | 0.00 | 32 | 1013.4 |
| 20260905221720 | 98 | 137 | 6.0 | 16.0 | 0.00 | 0.00 | 0.00 | 32 | 1013.4 |
| 20260905220812 | 97 | 85 | 6.0 | 13.0 | 0.00 | 0.00 | 0.00 | 33 | 1013.5 |
| 20260905220313 | 95 | 149 | 4.0 | 11.0 | 0.00 | 0.00 | 0.00 | 34 | 1013.5 |
| 20260905215812 | 96 | 103 | 5.0 | 13.0 | 0.00 | 0.00 | 0.00 | 33 | 1013.6 |
| 20260905215307 | 97 | 103 | 8.0 | 14.0 | 0.00 | 0.00 | 0.00 | 32 | 1013.6 |
| 20260905214812 | 98 | 96 | 5.0 | 14.0 | 0.00 | 0.00 | 0.00 | 33 | 1013.7 |
| 20260905214324 | 98 | 180 | 7.0 | 16.0 | 0.00 | 0.00 | 0.00 | 33 | 1013.8 |
| 20260905214033 | 98 | 124 | 7.0 | 16.0 | 0.00 | 0.00 | 0.00 | 33 | 1013.8 |
| 20260905213811 | 98 | 124 | 7.0 | 16.0 | 0.00 | 0.00 | 0.00 | 33 | 1013.8 |
| 20260905213312 | 99 | 96 | 6.0 | 13.0 | 0.00 | 0.00 | 0.00 | 32 | 1013.9 |
| 20260905212810 | 99 | 109 | 6.0 | 13.0 | 0.00 | 0.00 | 0.00 | 32 | 1013.8 |
| 20260905212458 | 99 | 125 | 4.0 | 16.0 | 0.00 | 0.00 | 0.00 | 32 | 1013.9 |
| 20260905212002 | 99 | 144 | 5.0 | 16.0 | 0.00 | 0.00 | 0.00 | 32 | 1014.0 |
| 20260905211213 | 98 | 120 | 5.0 | 20.0 | 0.00 | 0.00 | 0.00 | 33 | 1014.3 |
| 20260905210820 | 99 | 92 | 6.0 | 17.0 | 0.00 | 0.00 | 0.00 | 32 | 1014.2 |
| 20260905205812 | 98 | 102 | 7.0 | 20.0 | 0.00 | 0.00 | 0.00 | 32 | 1014.3 |
| 20260905205307 | 99 | 107 | 7.0 | 15.0 | 0.00 | 0.00 | 0.00 | 33 | 1014.4 |
| 20260905205034 | 99 | 197 | 6.0 | 15.0 | 0.00 | 0.00 | 0.00 | 33 | 1014.5 |
| 20260905204821 | 99 | 197 | 6.0 | 15.0 | 0.00 | 0.00 | 0.00 | 33 | 1014.5 |
| 20260905204312 | 99 | 226 | 6.0 | 13.0 | 0.00 | 0.00 | 0.00 | 34 | 1014.6 |
| 20260905203808 | 98 | 111 | 6.0 | 12.0 | 0.00 | 0.00 | 0.00 | 31 | 1014.7 |
| 20260905203324 | 98 | 182 | 4.0 | 11.0 | 0.00 | 0.00 | 0.00 | 33 | 1014.8 |
| 20260905202813 | 98 | 121 | 5.0 | 15.0 | 0.00 | 0.00 | 0.00 | 33 | 1014.8 |
| 20260905202309 | 98 | 142 | 6.0 | 15.0 | 0.00 | 0.00 | 0.00 | 32 | 1014.8 |
| 20260905201814 | 98 | 135 | 5.0 | 12.0 | 0.00 | 0.00 | 0.00 | 33 | 1014.9 |
| 20260905201342 | 98 | 114 | 4.0 | 12.0 | 0.00 | 0.00 | 0.00 | 35 | 1015.1 |
| 20260905201318 | 98 | 133 | 5.0 | 12.0 | 0.00 | 0.00 | 0.00 | 33 | 1014.9 |
| 20260905200626 | 98 | 124 | 6.0 | 12.0 | 0.00 | 0.00 | 0.00 | 33 | 1015.2 |
| 20260905200038 | 99 | 131 | 6.0 | 12.0 | 0.00 | 0.00 | 0.00 | 33 | 1015.2 |
| 20260905195657 | 99 | 158 | 5.0 | 14.0 | 0.00 | 0.00 | 0.00 | 34 | 1015.3 |
| 20260905195455 | 99 | 148 | 5.0 | 12.0 | 0.00 | 0.00 | 0.00 | 34 | 1015.3 |
| 20260905194727 | 98 | 155 | 5.0 | 15.0 | 0.00 | 0.00 | 0.00 | 35 | 1015.3 |
| 20260905194204 | 98 | 93 | 6.0 | 15.0 | 0.00 | 0.00 | 0.00 | 33 | 1015.3 |
| 20260905193307 | 98 | 148 | 6.0 | 13.0 | 0.00 | 0.00 | 0.00 | 34 | 1015.3 |
| 20260905192807 | 98 | 140 | 7.0 | 13.0 | 0.00 | 0.00 | 0.00 | 34 | 1015.5 |
| 20260905192311 | 98 | 237 | 5.0 | 15.0 | 0.00 | 0.00 | 0.00 | 34 | 1015.5 |
| 20260905191810 | 97 | 169 | 7.0 | 15.0 | 0.00 | 0.00 | 0.00 | 34 | 1015.6 |
| 20260905191536 | 97 | 82 | 6.0 | 15.0 | 0.00 | 0.00 | 0.00 | 34 | 1015.6 |
| 20260905190811 | 97 | 176 | 6.0 | 17.0 | 0.00 | 0.00 | 0.00 | 34 | 1015.7 |
| 20260905190310 | 97 | 221 | 6.0 | 17.0 | 0.00 | 0.00 | 0.00 | 35 | 1015.7 |
| 20260905185811 | 97 | 133 | 6.0 | 14.0 | 0.00 | 0.00 | 0.00 | 36 | 1015.8 |
| 20260905185311 | 97 | 124 | 6.0 | 14.0 | 0.00 | 0.00 | 0.00 | 36 | 1015.8 |
| 20260905185035 | 97 | 223 | 7.0 | 14.0 | 0.00 | 0.00 | 0.00 | 37 | 1015.9 |
| 20260905184905 | 97 | 193 | 5.0 | 14.0 | 0.00 | 0.00 | 0.00 | 37 | 1015.9 |
| 20260905183807 | 96 | 99 | 5.0 | 14.0 | 0.00 | 0.00 | 0.00 | 39 | 1016.1 |
| 20260905183536 | 96 | 102 | 4.0 | 14.0 | 0.00 | 0.00 | 0.00 | 39 | 1016.2 |
| 20260905182809 | 96 | 190 | 6.0 | 14.0 | 0.00 | 0.00 | 0.00 | 39 | 1016.2 |
| 20260905182312 | 95 | 109 | 4.0 | 12.0 | 0.00 | 0.00 | 0.00 | 41 | 1016.2 |
| 20260905181811 | 95 | 162 | 7.0 | 14.0 | 0.00 | 0.00 | 0.00 | 40 | 1016.3 |
| 20260905181308 | 95 | 244 | 4.0 | 14.0 | 0.00 | 0.00 | 0.00 | 41 | 1016.3 |
| 20260905180807 | 94 | 134 | 6.0 | 14.0 | 0.00 | 0.00 | 0.00 | 41 | 1016.4 |
| 20260905180311 | 94 | 171 | 3.0 | 15.0 | 0.00 | 0.00 | 0.00 | 40 | 1016.4 |
| 20260905175810 | 94 | 111 | 7.0 | 15.0 | 0.00 | 0.00 | 0.00 | 41 | 1016.4 |
| 20260905175538 | 93 | 195 | 7.0 | 12.0 | 0.00 | 0.00 | 0.00 | 43 | 1016.6 |
| 20260905174807 | 93 | 199 | 6.0 | 14.0 | 0.00 | 0.00 | 0.00 | 42 | 1016.7 |
| 20260905174309 | 93 | 172 | 8.0 | 14.0 | 0.00 | 0.00 | 0.00 | 43 | 1016.7 |
| 20260905173811 | 93 | 217 | 7.0 | 11.0 | 0.00 | 0.00 | 0.00 | 42 | 1016.8 |
| 20260905173307 | 93 | 221 | 6.0 | 15.0 | 0.00 | 0.00 | 0.00 | 44 | 1016.8 |
| 20260905172807 | 92 | 175 | 8.0 | 15.0 | 0.00 | 0.00 | 0.00 | 44 | 1016.8 |
| 20260905172312 | 92 | 195 | 7.0 | 14.0 | 0.00 | 0.00 | 0.00 | 45 | 1016.8 |
| 20260905171809 | 92 | 171 | 5.0 | 14.0 | 0.00 | 0.00 | 0.00 | 46 | 1016.9 |
| 20260905171705 | 91 | 157 | 6.0 | 14.0 | 0.00 | 0.00 | 0.00 | 46 | 1016.9 |
| 20260905170812 | 91 | 197 | 8.0 | 12.0 | 0.00 | 0.00 | 0.00 | 47 | 1016.9 |
| 20260905170308 | 90 | 123 | 5.0 | 12.0 | 0.00 | 0.00 | 0.00 | 48 | 1016.9 |
| 20260905165811 | 90 | 164 | 5.0 | 13.0 | 0.00 | 0.00 | 0.00 | 48 | 1016.8 |
| 20260905165307 | 90 | 188 | 8.0 | 15.0 | 0.00 | 0.00 | 0.00 | 48 | 1016.9 |
| 20260905164810 | 89 | 130 | 9.0 | 15.0 | 0.00 | 0.00 | 0.00 | 49 | 1016.7 |
| 20260905164308 | 89 | 188 | 4.0 | 13.0 | 0.00 | 0.00 | 0.00 | 52 | 1016.7 |
| 20260905164035 | 88 | 357 | 7.0 | 12.0 | 0.00 | 0.00 | 0.00 | 51 | 1016.8 |
| 20260905163809 | 88 | 357 | 7.0 | 12.0 | 0.00 | 0.00 | 0.00 | 51 | 1016.8 |
| 20260905163310 | 88 | 166 | 6.0 | 12.0 | 0.00 | 0.00 | 0.00 | 52 | 1016.8 |
| 20260905162809 | 87 | 173 | 6.0 | 14.0 | 0.00 | 0.00 | 0.00 | 54 | 1016.8 |
| 20260905162713 | 87 | 151 | 7.0 | 14.0 | 0.00 | 0.00 | 0.00 | 54 | 1016.8 |
| 20260905161810 | 86 | 6 | 6.0 | 13.0 | 0.00 | 0.00 | 0.00 | 55 | 1016.9 |
| 20260905161538 | 85 | 172 | 6.0 | 13.0 | 0.00 | 0.00 | 0.00 | 56 | 1016.9 |
| 20260905161310 | 85 | 172 | 6.0 | 13.0 | 0.00 | 0.00 | 0.00 | 56 | 1016.9 |
| 20260905160809 | 85 | 213 | 5.0 | 13.0 | 0.00 | 0.00 | 0.00 | 56 | 1016.9 |
| 20260905160511 | 84 | 171 | 7.0 | 13.0 | 0.00 | 0.00 | 0.00 | 59 | 1016.9 |
| 20260905160357 | 85 | 66 | 8.0 | 13.0 | 0.00 | 0.00 | 0.00 | 57 | 1016.9 |
| 20260905155308 | 84 | 202 | 7.0 | 16.0 | 0.00 | 0.00 | 0.00 | 57 | 1016.9 |
| 20260905154808 | 83 | 188 | 7.0 | 16.0 | 0.00 | 0.00 | 0.00 | 59 | 1016.9 |
| 20260905154311 | 84 | 199 | 6.0 | 15.0 | 0.00 | 0.00 | 0.00 | 58 | 1017.1 |
| 20260905153806 | 83 | 164 | 6.0 | 15.0 | 0.00 | 0.00 | 0.00 | 58 | 1016.9 |
| 20260905153308 | 83 | 199 | 3.0 | 16.0 | 0.00 | 0.00 | 0.00 | 59 | 1016.9 |
| 20260905152812 | 82 | 227 | 9.0 | 16.0 | 0.00 | 0.00 | 0.00 | 59 | 1016.9 |
| 20260905152308 | 82 | 188 | 6.0 | 14.0 | 0.00 | 0.00 | 0.00 | 60 | 1016.9 |
| 20260905151952 | 81 | 152 | 9.0 | 15.0 | 0.00 | 0.00 | 0.00 | 61 | 1016.9 |
| 20260905151908 | 82 | 197 | 6.0 | 15.0 | 0.00 | 0.00 | 0.00 | 61 | 1016.9 |
| 20260905151317 | 81 | 152 | 9.0 | 15.0 | 0.00 | 0.00 | 0.00 | 61 | 1016.9 |
| 20260905150807 | 81 | 223 | 6.0 | 13.0 | 0.00 | 0.00 | 0.00 | 62 | 1016.9 |
| 20260905150307 | 81 | 192 | 5.0 | 13.0 | 0.00 | 0.00 | 0.00 | 62 | 1016.9 |
| 20260905150032 | 80 | 173 | 4.0 | 14.0 | 0.00 | 0.00 | 0.00 | 63 | 1017.1 |
| 20260905145308 | 80 | 154 | 6.0 | 14.0 | 0.00 | 0.00 | 0.00 | 64 | 1017.1 |
| 20260905144808 | 80 | 134 | 6.0 | 14.0 | 0.00 | 0.00 | 0.00 | 65 | 1017.1 |
| 20260905144307 | 79 | 204 | 6.0 | 14.0 | 0.00 | 0.00 | 0.00 | 65 | 1017.1 |
| 20260905143808 | 79 | 152 | 6.0 | 12.0 | 0.00 | 0.00 | 0.00 | 65 | 1017.1 |
| 20260905143307 | 79 | 93 | 4.0 | 12.0 | 0.00 | 0.00 | 0.00 | 66 | 1016.9 |
| 20260905143143 | 78 | 158 | 5.0 | 12.0 | 0.00 | 0.00 | 0.00 | 66 | 1017.1 |
| 20260905142307 | 78 | 133 | 6.0 | 13.0 | 0.00 | 0.00 | 0.00 | 67 | 1017.1 |
| 20260905141806 | 78 | 214 | 3.0 | 13.0 | 0.00 | 0.00 | 0.00 | 67 | 1017.2 |
| 20260905141308 | 78 | 192 | 5.0 | 9.0 | 0.00 | 0.00 | 0.00 | 67 | 1017.1 |
| 20260905140807 | 77 | 142 | 4.0 | 11.0 | 0.00 | 0.00 | 0.00 | 68 | 1017.1 |
| 20260905140307 | 76 | 145 | 5.0 | 11.0 | 0.00 | 0.00 | 0.00 | 68 | 1017.2 |
| 20260905135806 | 76 | 123 | 5.0 | 11.0 | 0.00 | 0.00 | 0.00 | 69 | 1017.2 |
| 20260905135307 | 76 | 155 | 3.0 | 10.0 | 0.00 | 0.00 | 0.00 | 70 | 1017.1 |
| 20260905134808 | 75 | 113 | 5.0 | 10.0 | 0.00 | 0.00 | 0.00 | 70 | 1017.1 |
| 20260905134636 | 75 | 118 | 3.0 | 10.0 | 0.00 | 0.00 | 0.00 | 71 | 1017.1 |
| 20260905134118 | 74 | 144 | 1.0 | 7.0 | 0.00 | 0.00 | 0.00 | 72 | 1017.1 |
| 20260905133307 | 74 | 103 | 4.0 | 7.0 | 0.00 | 0.00 | 0.00 | 73 | 1017.1 |
| 20260905132806 | 74 | 100 | 2.0 | 6.0 | 0.00 | 0.00 | 0.00 | 73 | 1017.1 |
| 20260905132306 | 73 | 140 | 2.0 | 5.0 | 0.00 | 0.00 | 0.00 | 74 | 1017.1 |
| 20260905131806 | 73 | 178 | 2.0 | 5.0 | 0.00 | 0.00 | 0.00 | 75 | 1016.9 |
| 20260905131631 | 73 | 157 | 2.0 | 5.0 | 0.00 | 0.00 | 0.00 | 75 | 1016.8 |
| 20260905130807 | 72 | 165 | 2.0 | 6.0 | 0.00 | 0.00 | 0.00 | 75 | 1016.7 |
| 20260905130306 | 72 | 169 | 2.0 | 6.0 | 0.00 | 0.00 | 0.00 | 76 | 1016.7 |
| 20260905125814 | 72 | 117 | 2.0 | 6.0 | 0.00 | 0.00 | 0.00 | 76 | 1016.8 |
| 20260905125307 | 72 | 124 | 4.0 | 6.0 | 0.00 | 0.00 | 0.00 | 76 | 1016.7 |
| 20260905125140 | 72 | 116 | 3.0 | 6.0 | 0.00 | 0.00 | 0.00 | 76 | 1016.6 |
| 20260905124314 | 72 | 128 | 4.0 | 6.0 | 0.00 | 0.00 | 0.00 | 76 | 1016.7 |
| 20260905123807 | 72 | 120 | 3.0 | 10.0 | 0.00 | 0.00 | 0.00 | 76 | 1016.4 |
| 20260905123306 | 72 | 128 | 5.0 | 10.0 | 0.00 | 0.00 | 0.00 | 75 | 1016.5 |
| 20260905122806 | 72 | 135 | 4.0 | 7.0 | 0.00 | 0.00 | 0.00 | 74 | 1016.5 |
| 20260905122307 | 73 | 111 | 5.0 | 9.0 | 0.00 | 0.00 | 0.00 | 74 | 1016.4 |
| 20260905121806 | 73 | 141 | 4.0 | 11.0 | 0.00 | 0.00 | 0.00 | 74 | 1016.4 |
| 20260905121306 | 73 | 121 | 5.0 | 11.0 | 0.00 | 0.00 | 0.00 | 74 | 1016.4 |
| 20260905120807 | 73 | 89 | 4.0 | 10.0 | 0.00 | 0.00 | 0.00 | 74 | 1016.4 |
| 20260905120307 | 73 | 102 | 4.0 | 10.0 | 0.00 | 0.00 | 0.00 | 74 | 1016.4 |
| 20260905115806 | 73 | 123 | 4.0 | 7.0 | 0.00 | 0.00 | 0.00 | 73 | 1016.4 |
| 20260905115306 | 73 | 79 | 4.0 | 7.0 | 0.00 | 0.00 | 0.00 | 73 | 1016.4 |
| 20260905114806 | 73 | 116 | 4.0 | 7.0 | 0.00 | 0.00 | 0.00 | 73 | 1016.3 |
| 20260905114308 | 73 | 127 | 2.0 | 9.0 | 0.00 | 0.00 | 0.00 | 73 | 1016.3 |
| 20260905113806 | 73 | 128 | 3.0 | 9.0 | 0.00 | 0.00 | 0.00 | 73 | 1016.2 |
| 20260905113306 | 74 | 89 | 4.0 | 10.0 | 0.00 | 0.00 | 0.00 | 72 | 1016.3 |
| 20260905113136 | 74 | 99 | 6.0 | 10.0 | 0.00 | 0.00 | 0.00 | 72 | 1016.4 |
| 20260905112307 | 74 | 134 | 2.0 | 7.0 | 0.00 | 0.00 | 0.00 | 71 | 1016.4 |
| 20260905111806 | 74 | 102 | 2.0 | 7.0 | 0.00 | 0.00 | 0.00 | 70 | 1016.4 |
| 20260905111306 | 74 | 109 | 3.0 | 7.0 | 0.00 | 0.00 | 0.00 | 70 | 1016.3 |
| 20260905110807 | 75 | 110 | 5.0 | 7.0 | 0.00 | 0.00 | 0.00 | 69 | 1016.2 |
| 20260905110306 | 75 | 107 | 4.0 | 7.0 | 0.00 | 0.00 | 0.00 | 69 | 1016.1 |
| 20260905105806 | 75 | 99 | 3.0 | 5.0 | 0.00 | 0.00 | 0.00 | 69 | 1016.1 |